Skip Navigation Links
NOAA logo - Click to go to the NOAA homepage
NOAA's National Weather Service
Alaska Aviation Weather Unit
  NWS logo - Click to go to the NWS homepage
Left Navbar Graphic     15 AKDT = 23 GMT

   
NOAA is celebrating 200 years of science, service, and stewardship. Visit the NOAA 200th celebration Web site to learn more.
USA.gov is the U.S. Government's official Web portal to all Federal, state and local government Web resources and services.
Facebook
NWS on Facebook

Important Change Regarding the AAWU Web Presence

 

Over the last several months, the AAWU has been working to navigate its webpages to a nationally supported server. Security, as well as other needs, have necessitated the change.  We have been given an extension for the site changeover while we diligently work at addressing feedback received. As of July 14, 2017, aawu.arh.noaa.gov will be discontinued. The new AAWU web address is weather.gov/aawu. It is now live and will run in-parallel with the old site until it is discontinued on July 14, 2017. Please continue to send any feedback or questions regarding the new webpages to nws.ar.aawu.webauthors@noaa.gov.  Thank you for your patience during this time of transition.
AAWU Home :: Display TAF Add Bookmark
METAR PAFE 191756Z AUTO 00000KT 10SM FEW007 BKN019 OVC027 05/04 A2898
     RMK AO2 SLP826 60000 T00500044 10050 20039 53012=

SPECI PAFE 191824Z AUTO 00000KT 10SM BKN006 OVC019 06/04 A2899 RMK
 AO2 CIG 005V009=

METAR PAFE 191856Z AUTO 27003KT 10SM OVC006 06/04 A2900 RMK AO2 SLP831
     T00560044=

METAR PAFE 191956Z AUTO 20003KT 4SM BR OVC006 06/04 A2902 RMK AO2 SLP838
     T00610044=

METAR PAFE 192156Z AUTO 28003KT 9SM -RA OVC004 06/05 A2905 RMK AO2
     SLP850 P0000 T00560050=

SPECI PAFE 192229Z AUTO 27003KT 1 3/4SM -RA BR OVC004 06/05 A2906 RMK
     AO2 P0002=

SPECI PAFE 192235Z AUTO 26003KT 3SM -RA BR OVC004 06/05 A2906 RMK AO2
     P0003=


NOAA's National Weather Service
Alaska Aviation Weather Unit
6930 Sand Lake Road
Anchorage, AK 99502-1845
Disclaimer
Credits
Glossary
Privacy Policy
About Us
Career Opportunities
Contact AAWU Internet Services Site last modified: April, 17th 2012